This is the latest recevied weather packets stored in our database for station/object WD4DAN-13. If no packets are shown the sender has not sent any weather packets the latest 10 day(s).
| Time | Temp. | Humidity | Pressure | Rain* | Wind** | Luminosity | Snow |
|---|---|---|---|---|---|---|---|
| 1778088046 | 28.89° C | 61% | - | 0 mm | - | - | - |
| 1778087743 | 29.44° C | 57% | - | 0 mm | - | - | - |
| 1778087441 | 28.89° C | 59% | - | 0 mm | - | - | - |
| 1778087138 | 28.89° C | 64% | - | 0 mm | - | - | - |
| 1778086830 | 27.78° C | 61% | - | 0 mm | - | - | - |
| 1778086528 | 28.33° C | 61% | - | 0 mm | - | - | - |
| 1778086224 | 28.89° C | 62% | - | 0 mm | - | - | - |
| 1778085921 | 28.33° C | 61% | - | 0 mm | - | - | - |
| 1778085618 | 28.33° C | 63% | - | 0 mm | - | - | - |
| 1778085314 | 27.78° C | 63% | - | 0 mm | - | - | - |
| 1778085010 | 27.78° C | 64% | - | 0 mm | - | - | - |
| 1778084706 | 27.78° C | 65% | - | 0 mm | - | - | - |
| 1778084398 | 27.78° C | 64% | - | 0 mm | - | - | - |
| 1778084096 | 27.22° C | 63% | - | 0 mm | - | - | - |
| 1778083793 | 27.78° C | 65% | - | 0 mm | - | - | - |
| 1778083490 | 26.67° C | 67% | - | 0 mm | - | - | - |
| 1778083187 | 27.78° C | 67% | - | 0 mm | - | - | - |
| 1778082885 | 27.78° C | 68% | - | 0 mm | - | - | - |
| 1778081777 | 26.67° C | 70% | - | 0 mm | - | - | - |
| 1778081474 | 26.67° C | 72% | - | 0 mm | - | - | - |
| 1778081171 | 27.22° C | 70% | - | 0 mm | - | - | - |
| 1778080869 | 26.67° C | 72% | - | 0 mm | - | - | - |
| 1778080567 | 26.11° C | 72% | - | 0 mm | - | - | - |
| 1778080264 | 26.11° C | 73% | - | 0 mm | - | - | - |
| 1778079961 | 26.11° C | 74% | - | 0 mm | - | - | - |
* Rain latest hour (hover to see other rain measurements)
** Current wind speed in m/s (hover to see current wind gust speed)